AFL1260 UNNT-USRR

Flight info

Callsign AFL1260
Flight time N/A
Altitude 36000
Route DIMID1K DIMID R484 BA R104 KUPON R229 KARPO KARPO1L
Aircraft A320/M-SDE3FGHIRWY/LB1

Departure

Time 2026-04-30 21:09
Airport Novosibirsk Tolmachevo Airport (UNNT)

Arrival

Time N/A
Airport Surgut International Airport (USRR)
Time Latitude Longitude Altitude Speed Heading
2026-04-30 20:49 55.01032 82.66754 373 ft 0 kts 170°
2026-04-30 21:02 55.01034 82.66753 373 ft 2 kts 170°
2026-04-30 21:02 55.01059 82.66747 373 ft 4 kts 174°
2026-04-30 21:02 55.01085 82.66741 373 ft 4 kts 156°
2026-04-30 21:03 55.01096 82.66727 373 ft 1 kts 81°
2026-04-30 21:03 55.01096 82.66726 373 ft 0 kts 81°
2026-04-30 21:05 55.01096 82.66729 373 ft 2 kts 81°
2026-04-30 21:05 55.01099 82.66786 373 ft 8 kts 90°
2026-04-30 21:05 55.01079 82.66908 373 ft 13 kts 105°
2026-04-30 21:06 55.01092 82.67101 373 ft 19 kts 81°
2026-04-30 21:06 55.01108 82.67343 373 ft 21 kts 88°
2026-04-30 21:06 55.01158 82.67500 373 ft 16 kts 31°
2026-04-30 21:06 55.01257 82.67603 373 ft 17 kts 31°
2026-04-30 21:07 55.01364 82.67713 372 ft 19 kts 31°
2026-04-30 21:07 55.01462 82.67801 371 ft 10 kts 13°
2026-04-30 21:07 55.01489 82.67749 371 ft 6 kts 258°
2026-04-30 21:07 55.01482 82.67685 372 ft 5 kts 261°
2026-04-30 21:08 55.01477 82.67631 371 ft 4 kts 261°
2026-04-30 21:08 55.01466 82.67504 370 ft 35 kts 261°
2026-04-30 21:08 55.01386 82.66631 374 ft 107 kts 261°
2026-04-30 21:08 55.01236 82.65009 372 ft 162 kts 261°
2026-04-30 21:09 55.01061 82.62886 643 ft 186 kts 263°
2026-04-30 21:09 55.00883 82.60632 1391 ft 191 kts 261°
2026-04-30 21:09 55.00676 82.58293 2015 ft 203 kts 260°
2026-04-30 21:09 55.00446 82.55789 2559 ft 213 kts 259°
2026-04-30 21:10 55.00271 82.53187 3201 ft 224 kts 273°
2026-04-30 21:10 55.00874 82.50561 3584 ft 250 kts 307°
2026-04-30 21:10 55.02118 82.48275 4167 ft 267 kts 319°
2026-04-30 21:10 55.03730 82.46604 5028 ft 274 kts 336°
2026-04-30 21:11 55.05497 82.45339 5989 ft 275 kts 336°
2026-04-30 21:11 55.07281 82.44089 6919 ft 277 kts 336°
2026-04-30 21:11 55.09076 82.42837 7814 ft 279 kts 335°
2026-04-30 21:11 55.10863 82.41588 8707 ft 281 kts 335°
2026-04-30 21:12 55.12687 82.40314 9611 ft 283 kts 335°
2026-04-30 21:12 55.14526 82.39026 10413 ft 289 kts 334°
2026-04-30 21:12 55.16470 82.37657 10664 ft 313 kts 334°
2026-04-30 21:12 55.18565 82.36175 10906 ft 335 kts 335°
2026-04-30 21:13 55.20765 82.34626 11480 ft 344 kts 335°
2026-04-30 21:13 55.23002 82.33061 12204 ft 348 kts 335°
2026-04-30 21:13 55.25267 82.31478 12941 ft 352 kts 335°
2026-04-30 21:13 55.27553 82.29873 13677 ft 356 kts 335°
2026-04-30 21:14 55.29860 82.28246 14360 ft 359 kts 335°
2026-04-30 21:14 55.32188 82.26599 15009 ft 362 kts 334°
2026-04-30 21:14 55.34536 82.24937 15669 ft 365 kts 334°
2026-04-30 21:14 55.36900 82.23261 16320 ft 368 kts 334°
2026-04-30 21:15 55.39279 82.21570 16964 ft 370 kts 334°
2026-04-30 21:15 55.41679 82.19866 17613 ft 373 kts 334°
2026-04-30 21:15 55.44097 82.18143 18263 ft 376 kts 334°
2026-04-30 21:15 55.46530 82.16407 18832 ft 379 kts 334°
2026-04-30 21:16 55.48987 82.14655 19380 ft 382 kts 334°
2026-04-30 21:16 55.51465 82.12884 19925 ft 385 kts 334°
2026-04-30 21:16 55.53958 82.11096 20479 ft 389 kts 333°
2026-04-30 21:16 55.56471 82.09289 21018 ft 392 kts 333°
2026-04-30 21:17 55.59007 82.07469 21537 ft 395 kts 333°
2026-04-30 21:17 55.61529 82.05661 22044 ft 398 kts 333°
2026-04-30 21:17 55.64136 82.03789 22546 ft 401 kts 333°
2026-04-30 21:17 55.66701 82.01945 23026 ft 404 kts 333°
2026-04-30 21:18 55.69320 82.00061 23498 ft 407 kts 333°
2026-04-30 21:18 55.71961 81.98153 23920 ft 410 kts 333°
2026-04-30 21:18 55.74615 81.96228 24307 ft 412 kts 333°
2026-04-30 21:18 55.77275 81.94295 24692 ft 414 kts 333°
2026-04-30 21:19 55.79047 81.93008 24974 ft 415 kts 333°
2026-04-30 21:19 55.81725 81.91061 25372 ft 417 kts 333°
2026-04-30 21:19 55.85292 81.88463 25874 ft 419 kts 333°
2026-04-30 21:19 55.87968 81.86516 26236 ft 421 kts 333°
2026-04-30 21:20 55.88256 81.86307 26276 ft 421 kts 333°
2026-04-30 21:20 55.90088 81.84972 26516 ft 422 kts 333°